Weather reports worldwide

Advertisment
Kaisersbach-Cronhütte, Germany (10747): temperature & dewpoint: 16.02.2019 22:00:00 - 22.02.2019 22:00:00 (CET)Kaisersbach-Cronhütte, Germany (10747): temperature 5cm & temperature -5cm: 16.02.2019 22:00:00 - 22.02.2019 22:00:00 (CET)Kaisersbach-Cronhütte, Germany (10747): temperature -20cm & temperature -100cm: 16.02.2019 22:00:00 - 22.02.2019 22:00:00 (CET)Kaisersbach-Cronhütte, Germany (10747): wind speed & gusts: 16.02.2019 22:00:00 - 22.02.2019 22:00:00 (CET)Kaisersbach-Cronhütte, Germany (10747): wind direction: 16.02.2019 22:00:00 - 22.02.2019 22:00:00 (CET)Kaisersbach-Cronhütte, Germany (10747): reduced air pressure: 16.02.2019 22:00:00 - 22.02.2019 22:00:00 (CET)Kaisersbach-Cronhütte, Germany (10747): visibility: 16.02.2019 22:00:00 - 22.02.2019 22:00:00 (CET)Kaisersbach-Cronhütte, Germany (10747): sunshine duration: 16.02.2019 22:00:00 - 22.02.2019 22:00:00 (CET)Kaisersbach-Cronhütte, Germany (10747): precipitation: 16.02.2019 22:00:00 - 22.02.2019 22:00:00 (CET)
Date & Time tt [°C] td [°C] tt 5cm [°C] tt -5cm [°C] tt -20cm [°C] tt -100cm [°C] ff [km/h] ff [kn] fx [km/h] fx [kn] dd ppp [hPa] vv [km] sd [min] rr [mm]
22.02.2019 22:00:00 4,7 2,5 1,8 3,4 5,7 3,8 6 4 14 7 ENE 1038,5 36 0 0,0
22.02.2019 21:00:00 4,0 2,9 0,3 4,4 6,0 3,8 3 2 6 3 N 1038,2 35 0 0,0
22.02.2019 20:00:00 6,1 3,5 3,7 5,9 6,2 3,8 4 2 7 4 N 1037,4 54 0 0,0
22.02.2019 19:00:00 6,9 3,5 5,3 6,3 6,4 3,8 5 3 9 5 NNE 1037,1 42 0 0,0
22.02.2019 18:00:00 8,5 3,3 7,0 7,8 6,4 3,8 6 4 13 7 NNE 1036,4 50 0 0,0
22.02.2019 17:00:00 9,4 2,7 9,0 9,0 6,3 3,8 6 3 18 10 NNE 1035,8 58 12 0,0
22.02.2019 16:00:00 9,9 2,8 11,0 9,8 6,1 3,7 9 5 18 10 N 1035,4 50 13 0,0
22.02.2019 15:00:00 9,8 2,8 10,3 9,8 5,8 3,7 9 5 19 11 NE 1035,1 41 5 0,0
22.02.2019 14:00:00 9,4 1,9 10,0 10,0 5,4 3,7 9 5 20 11 N 1034,9 41 1 0,0
22.02.2019 13:00:00 9,3 4,2 9,9 9,6 5,0 3,7 8 4 18 10 NNE 1034,5 22 9 0,0
22.02.2019 12:00:00 8,6 5,3 8,3 8,6 4,6 3,7 7 4 19 11 NNE 1034,5 15 9 0,0
22.02.2019 11:00:00 7,9 6,2 8,2 7,5 4,3 3,7 8 4 16 9 NW 1034,2 6 0 0,0
22.02.2019 10:00:00 7,3 6,1 7,4 6,2 4,2 3,7 6 4 17 9 NW 1033,8 3,6 0 0,0
22.02.2019 09:00:00 6,8 6,1 6,5 5,2 4,1 3,7 5 3 18 10 WNW 1033,5 2,5 0 0,0
22.02.2019 08:00:00 6,6 5,9 6,0 4,9 4,0 3,7 6 4 17 9 WNW 1032,9 2,3 0 0,2
22.02.2019 07:00:00 6,6 6,0 6,1 4,8 4,0 3,7 9 5 16 8 WNW 1032,3 2,3 0 0,2
22.02.2019 06:00:00 6,7 5,9 6,2 4,8 3,9 3,7 9 5 21 11 WNW 1032,0 1,6 0 0,1
22.02.2019 05:00:00 6,9 5,6 6,2 4,5 3,8 3,7 10 6 26 14 W 1031,5 2,6 0 0,0
22.02.2019 04:00:00 7,5 4,3 6,6 4,0 3,9 3,7 10 5 19 10 W 1031,2 7 0 0,0
22.02.2019 03:00:00 6,9 3,9 5,4 3,5 3,9 3,7 9 5 16 9 WSW 1030,6 9 0 0,0
22.02.2019 02:00:00 6,7 3,9 4,9 3,7 4,0 3,7 6 3 9 5 WSW 1030,9 8 0 0,0
22.02.2019 01:00:00 5,9 3,8 3,4 3,9 4,1 3,7 3 2 12 6 WSW 1031,1 10 0 0,0
22.02.2019 00:00:00 4,4 2,8 3,7 3,9 4,2 3,7 3 2 8 4 W 1031,5 14 0 0,0
21.02.2019 23:00:00 4,3 2,9 2,4 3,9 4,3 3,7 0 0 3 2 N 1031,2 13 0 0,0
21.02.2019 22:00:00 4,5 2,9 2,8 4,1 4,4 3,7 0 0 6 3 N 1030,8 13 0 0,0
21.02.2019 21:00:00 4,5 3,0 2,8 4,3 4,6 3,7 0 0 4 2 N 1030,7 13 0 0,0
21.02.2019 20:00:00 5,3 3,1 3,4 4,5 4,8 3,7 1 0 3 2 WSW 1030,4 14 0 0,0
21.02.2019 19:00:00 5,5 3,5 1,8 4,8 4,9 3,7 0 0 8 4 N 1030,0 16 0 0,0
21.02.2019 18:00:00 8,1 3,7 3,4 6,4 4,9 3,6 5 3 17 9 WNW 1028,9 21 0 0,0
21.02.2019 17:00:00 10,3 3,6 9,4 8,0 4,7 3,6 8 5 18 10 WNW 1028,1 19 5 0,0
21.02.2019 16:00:00 10,9 3,8 12,1 8,8 4,4 3,6 7 4 24 13 W 1027,8 19 10 0,0
21.02.2019 15:00:00 10,7 3,9 11,2 9,0 3,9 3,6 10 5 19 10 W 1027,9 18 3 0,0
21.02.2019 14:00:00 10,4 3,8 11,1 8,7 3,3 3,6 11 6 22 12 W 1028,3 20 0 0,0
21.02.2019 13:00:00 10,2 3,8 11,2 8,3 2,6 3,6 11 6 21 11 WSW 1028,6 19 10 0,0
21.02.2019 12:00:00 9,6 3,9 10,7 7,0 2,0 3,6 12 7 19 10 WSW 1028,9 20 22 0,0
21.02.2019 11:00:00 8,7 3,7 8,5 4,3 1,7 3,6 4 2 11 6 WSW 1029,1 16 41 0,0
21.02.2019 10:00:00 4,5 1,9 6,0 0,6 1,7 3,6 3 1 4 2 E 1029,9 11 41 0,0
21.02.2019 09:00:00 0,5 0,0 0,0 0,4 1,8 3,6 0 0 3 1 N 1030,6 6 0 0,0
21.02.2019 08:00:00 -0,8 -1,5 -0,6 0,4 1,8 3,6 2 1 4 2 NW 1030,5 7 0 0,0
21.02.2019 07:00:00 -1,7 -2,3 -1,4 0,4 1,9 3,6 0 0 3 2 N 1030,4 4,5 0 0,0
21.02.2019 06:00:00 -2,2 -2,8 -3,7 0,4 2,0 3,6 2 1 3 2 NW 1030,4 3,6 0 0,0
21.02.2019 05:00:00 -2,0 -2,5 -2,6 0,5 2,2 3,6 0 0 3 1 N 1030,4 3,6 0 0,0
21.02.2019 04:00:00 -2,1 -2,3 -3,8 0,5 2,3 3,6 0 0 3 1 N 1030,1 2,7 0 0,0
21.02.2019 03:00:00 -1,9 -2,2 -3,9 0,6 2,5 3,6 2 1 3 1 WNW 1030,0 2,9 0 0,0
21.02.2019 02:00:00 -1,6 -2,1 -3,5 0,7 2,6 3,6 0 0 2 1 N 1030,0 4,0 0 0,0
21.02.2019 01:00:00 -0,9 -1,2 -2,9 0,7 2,9 3,6 2 1 3 1 WNW 1029,5 4,1 0 0,0
21.02.2019 00:00:00 0,1 -0,5 -2,3 1,0 3,1 3,6 0 0 3 2 N 1028,9 6 0 0,0
20.02.2019 23:00:00 1,0 0,0 0,0 1,8 3,3 3,6 0 0 3 1 N 1028,6 12 0 0,0
20.02.2019 22:00:00 1,1 0,1 -0,1 1,7 3,6 3,6 0 0 3 2 S 1028,5 13 0 0,0
20.02.2019 21:00:00 1,4 0,4 -1,1 2,3 3,8 3,6 2 1 3 2 N 1028,2 17 0 0,0
20.02.2019 20:00:00 2,1 0,8 -0,8 2,7 4,1 3,6 1 0 3 1 NW 1027,6 19 0 0,0
20.02.2019 19:00:00 3,5 1,4 -0,3 3,7 4,3 3,6 0 0 3 1 N 1027,0 21 0 0,0
20.02.2019 18:00:00 5,9 1,9 2,2 5,3 4,3 3,6 2 1 10 6 WNW 1025,9 31 0 0,0
20.02.2019 17:00:00 8,3 1,9 6,6 7,1 4,1 3,6 4 2 16 8 W 1025,2 31 14 0,0
20.02.2019 16:00:00 9,4 1,5 10,8 8,7 3,6 3,6 8 4 21 12 W 1025,1 36 51 0,0
20.02.2019 15:00:00 9,0 1,3 10,1 7,7 3,0 3,6 14 7 25 13 W 1025,2 39 56 0,0
20.02.2019 14:00:00 8,4 1,3 9,2 7,3 2,3 3,6 18 10 28 15 WSW 1025,4 33 26 0,0
20.02.2019 13:00:00 8,5 0,7 9,7 6,9 1,6 3,6 13 7 23 12 WSW 1025,5 37 55 0,0
20.02.2019 12:00:00 7,9 1,7 8,3 3,9 1,3 3,6 10 5 18 10 SW 1025,7 28 57 0,0
20.02.2019 11:00:00 7,0 2,1 6,9 0,1 1,3 3,6 4 2 7 4 S 1025,3 15 57 0,0
20.02.2019 10:00:00 2,3 -0,2 4,1 0,1 1,4 3,6 0 0 4 2 N 1026,2 6 60 0,0
20.02.2019 09:00:00 -2,4 -3,5 -1,7 0,0 1,5 3,6 2 1 3 2 W 1027,1 6 3 0,0
20.02.2019 08:00:00 -3,2 -3,8 -4,6 0,1 1,5 3,6 2 1 3 2 WNW 1026,8 4,8 0 0,0
20.02.2019 07:00:00 -3,2 -3,6 -4,6 0,1 1,6 3,5 0 0 3 1 N 1026,2 0,3 0 0,0
20.02.2019 06:00:00 -3,2 -3,9 -4,8 0,2 1,7 3,5 0 0 4 2 N 1026,1 4,5 0 0,0
20.02.2019 05:00:00 -2,8 -3,2 -5,1 0,3 1,8 3,5 0 0 3 1 N 1025,8 4,1 0 0,0
20.02.2019 04:00:00 -2,7 -3,5 -4,7 0,3 1,9 3,5 0 0 3 1 N 1025,8 7 0 0,0
20.02.2019 03:00:00 -2,4 -3,1 -4,7 0,4 2,0 3,5 0 0 3 1 N 1025,9 4,4 0 0,0
20.02.2019 02:00:00 -2,2 -2,7 -4,4 0,5 2,2 3,5 0 0 4 2 N 1026,0 4,0 0 0,0
20.02.2019 01:00:00 -1,8 -2,3 -4,0 0,5 2,3 3,5 0 0 3 1 N 1025,7 6 0 0,0
20.02.2019 00:00:00 -1,7 -2,0 -3,6 0,6 2,5 3,5 1 0 4 2 NNW 1025,4 2,4 0 0,0
19.02.2019 23:00:00 -0,7 -0,9 -3,1 0,7 2,7 3,5 0 0 3 1 N 1025,2 2,5 0 0,0
19.02.2019 22:00:00 0,3 -0,3 -2,8 0,8 3,0 3,5 0 0 6 3 N 1024,7 5 0 0,0
19.02.2019 21:00:00 1,9 1,0 -2,1 1,3 3,3 3,5 2 1 6 4 W 1024,0 5 0 0,0
19.02.2019 20:00:00 3,5 1,8 -0,3 2,4 3,5 3,5 2 1 11 6 SSW 1023,4 11 0 0,0
19.02.2019 19:00:00 5,2 2,2 2,2 3,6 3,6 3,5 6 4 11 6 W 1022,7 18 0 0,0
19.02.2019 18:00:00 6,2 2,6 4,5 4,5 3,6 3,5 7 4 20 11 W 1021,9 20 0 0,0
19.02.2019 17:00:00 6,7 2,5 6,2 5,3 3,5 3,5 9 5 20 11 WNW 1021,7 20 0 0,0
19.02.2019 16:00:00 6,8 2,3 6,7 5,3 3,3 3,5 10 5 21 11 W 1021,8 25 0 0,0
19.02.2019 15:00:00 6,7 1,9 5,9 5,5 3,1 3,5 11 6 21 11 WNW 1021,7 26 0 0,0
19.02.2019 14:00:00 7,9 1,6 7,8 6,7 2,5 3,5 12 7 29 16 W 1021,4 33 1 0,0
19.02.2019 13:00:00 9,4 1,1 11,7 6,5 2,0 3,5 13 7 26 14 W 1021,2 32 26 0,0
19.02.2019 12:00:00 9,1 0,4 9,5 4,3 1,6 3,5 9 5 20 11 WSW 1021,6 47 8 0,0
19.02.2019 11:00:00 9,1 0,6 9,3 0,8 1,5 3,5 10 6 21 12 SW 1021,1 37 39 0,0
19.02.2019 10:00:00 6,9 -0,5 5,1 0,2 1,6 3,4 10 5 20 11 SW 1021,2 26 30 0,0
19.02.2019 09:00:00 2,4 -0,8 0,1 0,2 1,7 3,4 3 1 7 4 SSE 1022,0 25 53 0,0
19.02.2019 08:00:00 -2,4 -3,9 -3,8 0,1 1,8 3,4 3 2 8 5 E 1022,9 16 0 0,0
19.02.2019 07:00:00 -3,0 -4,1 -5,3 0,2 1,9 3,4 0 0 2 1 N 1022,7 13 0 0,0
19.02.2019 06:00:00 -2,9 -4,2 -5,2 0,3 2,0 3,4 0 0 7 4 N 1022,5 14 0 0,0
19.02.2019 05:00:00 -3,1 -4,3 -5,2 0,4 2,1 3,4 0 0 3 1 N 1022,4 15 0 0,0
19.02.2019 04:00:00 -3,0 -4,1 -5,3 0,4 2,2 3,4 0 0 3 1 N 1022,2 13 0 0,0
19.02.2019 03:00:00 -2,8 -3,7 -5,0 0,5 2,4 3,4 2 1 3 1 NW 1022,4 14 0 0,0
19.02.2019 02:00:00 -2,3 -3,7 -4,5 0,6 2,6 3,4 0 0 3 2 N 1022,4 18 0 0,0
19.02.2019 01:00:00 -1,4 -3,0 -3,9 0,7 2,8 3,4 0 0 3 2 N 1022,2 26 0 0,0
19.02.2019 00:00:00 -1,5 -3,6 -4,3 0,8 3,1 3,4 0 0 4 2 N 1021,9 17 0 0,0
18.02.2019 23:00:00 -1,2 -3,1 -3,8 0,9 3,4 3,4 0 0 3 2 SE 1021,5 16 0 0,0
18.02.2019 22:00:00 -0,2 -2,4 -3,2 1,0 3,8 3,4 0 0 3 2 N 1021,1 26 0 0,0
18.02.2019 21:00:00 1,0 -2,2 -2,9 1,6 4,2 3,4 2 1 3 2 NW 1020,9 39 0 0,0
18.02.2019 20:00:00 2,8 -1,3 -2,0 2,6 4,6 3,4 0 0 4 2 N 1020,4 29 0 0,0
18.02.2019 19:00:00 4,9 -0,9 -1,1 4,0 4,9 3,4 0 0 4 2 N 1019,8 54 0 0,0
18.02.2019 18:00:00 8,3 -1,8 1,4 6,0 5,0 3,4 2 1 5 3 W 1019,1 41 9 0,0
18.02.2019 17:00:00 12,7 -2,7 5,2 8,5 4,7 3,4 4 2 9 5 SSE 1018,4 56 60 0,0
18.02.2019 16:00:00 14,6 -1,5 16,9 10,2 4,1 3,3 5 3 12 6 ESE 1018,3 59 60 0,0
18.02.2019 15:00:00 14,7 -3,9 16,6 9,7 3,2 3,3 5 3 12 6 E 1018,5 61 60 0,0
18.02.2019 14:00:00 14,9 -2,8 16,2 9,3 2,2 3,3 5 3 12 7 SE 1019,1 43 60 0,0
18.02.2019 13:00:00 13,6 -3,4 15,6 7,7 1,5 3,3 8 4 14 7 ESE 1020,1 33 60 0,0
18.02.2019 12:00:00 12,4 -2,4 14,3 3,9 1,3 3,3 6 3 11 6 ENE 1021,2 39 60 0,0
18.02.2019 11:00:00 9,8 -0,4 10,2 0,1 1,3 3,3 3 1 4 2 ESE 1022,2 37 60 0,0
18.02.2019 10:00:00 3,8 -2,0 5,1 0,1 1,4 3,3 0 0 3 2 N 1023,9 22 60 0,0
18.02.2019 09:00:00 -0,4 -3,6 -1,7 0,0 1,5 3,3 0 0 3 2 W 1024,9 14 59 0,0
18.02.2019 08:00:00 -3,4 -4,6 -5,3 0,1 1,6 3,3 0 0 3 2 N 1025,6 27 0 0,0
18.02.2019 07:00:00 -3,4 -4,6 -6,1 0,2 1,7 3,3 0 0 3 2 N 1025,4 19 0 0,0
18.02.2019 06:00:00 -3,3 -4,6 -5,7 0,2 1,8 3,3 0 0 3 1 N 1025,5 17 0 0,0
18.02.2019 05:00:00 -2,9 -4,4 -5,4 0,3 1,9 3,3 0 0 3 2 N 1025,5 19 0 0,0
18.02.2019 04:00:00 -2,9 -4,2 -5,3 0,4 2,0 3,3 0 0 3 1 N 1025,6 16 0 0,0
18.02.2019 03:00:00 -2,7 -3,9 -5,2 0,4 2,1 3,3 2 1 3 2 WNW 1025,9 15 0 0,0
18.02.2019 02:00:00 -2,7 -4,1 -5,2 0,5 2,3 3,3 0 0 3 1 N 1026,1 3,9 0 0,0
18.02.2019 01:00:00 -2,1 -3,9 -4,6 0,6 2,5 3,3 0 0 2 1 N 1026,2 23 0 0,0
18.02.2019 00:00:00 -1,4 -3,4 -4,0 0,7 2,7 3,3 0 0 3 2 N 1026,0 29 0 0,0
17.02.2019 23:00:00 -0,7 -3,6 -3,8 0,8 3,0 3,3 0 0 4 2 N 1026,1 37 0 0,0
17.02.2019 22:00:00 0,0 -3,4 -3,3 0,9 3,4 3,3 3 2 4 2 NW 1025,9 52 0 0,0
17.02.2019 21:00:00 0,8 -3,3 -2,9 1,3 3,8 3,3 2 1 3 2 NW 1025,7 19 0 0,0
17.02.2019 20:00:00 2,5 -2,5 -2,3 2,3 4,2 3,2 1 1 3 2 WNW 1025,3 23 0 0,0
17.02.2019 19:00:00 4,6 -1,8 -1,1 3,6 4,5 3,2 0 0 5 3 N 1024,7 60 0 0,0
17.02.2019 18:00:00 7,7 -1,7 0,3 5,4 4,6 3,2 2 1 3 2 N 1024,0 5 9 0,0
17.02.2019 17:00:00 13,6 -4,4 4,0 8,0 4,2 3,2 1 1 5 3 WSW 1022,9 70 60 0,0
17.02.2019 16:00:00 16,3 -6,5 15,1 9,6 3,6 3,2 5 3 10 6 SSW 1022,8 52 60 0,0
17.02.2019 15:00:00 16,2 -4,4 16,6 8,9 2,7 3,2 5 3 16 9 S 1023,1 51 60 0,0
17.02.2019 14:00:00 15,4 -5,4 16,4 8,1 1,8 3,2 7 4 16 9 SW 1023,7 47 60 0,0
17.02.2019 13:00:00 14,6 -5,9 15,2 6,6 1,2 3,2 10 5 17 9 S 1024,5 52 60 0,0
17.02.2019 12:00:00 13,5 -2,1 12,7 2,6 1,1 3,2 5 3 8 5 S 1025,3 37 60 0,0
17.02.2019 11:00:00 7,9 2,2 9,0 0,0 1,1 3,2 3 2 5 3 SE 1026,5 27 60 0,0
17.02.2019 10:00:00 3,9 -2,3 6,2 0,0 1,2 3,2 1 1 2 1 SE 1027,5 16 60 0,0
17.02.2019 09:00:00 -0,9 -3,1 -1,3 0,0 1,2 3,2 0 0 3 2 N 1028,9 9 57 0,0
17.02.2019 08:00:00 -3,6 -4,7 -5,8 0,1 1,3 3,2 1 1 3 2 W 1029,4 8 0 0,0
17.02.2019 07:00:00 -3,7 -4,3 -6,0 0,1 1,4 3,2 0 0 3 2 N 1029,3 8 0 0,0
17.02.2019 06:00:00 -3,6 -4,4 -6,1 0,2 1,5 3,2 0 0 2 1 N 1029,3 10 0 0,0
17.02.2019 05:00:00 -3,1 -4,0 -5,4 0,3 1,6 3,2 2 1 3 2 NW 1029,2 10 0 0,0
17.02.2019 04:00:00 -3,3 -4,2 -5,1 0,3 1,7 3,2 3 2 4 2 WNW 1029,3 11 0 0,0
17.02.2019 03:00:00 -3,0 -3,8 -5,2 0,4 1,8 3,2 0 0 3 1 N 1029,6 12 0 0,0
17.02.2019 02:00:00 -2,7 -4,3 -4,6 0,4 1,9 3,2 0 0 3 1 N 1029,8 20 0 0,0
17.02.2019 01:00:00 -2,4 -4,0 -4,5 0,5 2,1 3,2 0 0 2 1 N 1030,0 23 0 0,0
17.02.2019 00:00:00 -2,2 -3,8 -4,3 0,6 2,3 3,1 0 0 3 2 N 1030,0 26 0 0,0
16.02.2019 23:00:00 -1,7 -3,5 -4,1 0,6 2,5 3,1 0 0 3 1 N 1030,2 32 0 0,0
16.02.2019 22:00:00 -0,7 -3,2 -3,5 0,7 2,9 3,1 2 1 3 2 NW 1030,3 30 0 0,0

tt = temperature
td = dewpoint
tt 5cm = temperature 5cm
tt -5cm = temperature -5cm
tt -20cm = temperature -20cm
tt -100cm = temperature -100cm
ff = wind speed
fx = gusts
dd = wind direction
ppp = reduced air pressure
vv = visibility
sd = sunshine duration
rr = precipitation

Next stations